Location: Borotín
(49.5055°N, 14.6142°E)
Time: 07:15:39
(UTC+00:00)

Cosmos 1726 Rocket - Pass Details

Date: 27 May 2022
Orbit: 601 x 630 km, 82.5° (Epoch: 28 June)

Event Time Altitude Azimuth Distance (km) Brightness Sun altitude
Rises 01:44:46 0° 351° (N) 2,920 7.7 -10.2°
Reaches altitude 10° 01:47:01 10° 353° (N) 2,004 6.8 -10.0°
Maximum altitude 01:51:28 75° 79° (E) 645 3.8 -9.5°
Drops below altitude 10° 01:55:50 10° 166° (SSE) 1,970 5.8 -9.0°
Sets 01:58:02 0° 168° (SSE) 2,865 6.6 -8.8°
